Location: Catstown
(52.4386°N, 7.2633°W)
Time: 13:28:04
(UTC+00:00)

Cosmos 2278 Rocket - Pass Details

Date: 18 September 2020
Orbit: 841 x 845 km, 71.0° (Epoch: 22 October)

Event Time Altitude Azimuth Distance (km) Brightness Sun altitude
Exits shadow 23:04:21 40° 13° (NNE) 1,220 3.2 -33.7°
Drops below altitude 10° 23:08:01 10° 28° (NNE) 2,472 5.0 -33.9°
Sets 23:10:30 0° 31° (NNE) 3,411 5.8 -34.1°
